| time (UTC) | temp F | wind direction | speed knots | gust knots | rain 1hr in | rain 24hr in | rain mn in | humidity % | barometer mb |
| 20260510071549 | 66 | 157 | 2.6 | 7.8 | 0.00 | 0.00 | 0.00 | 79 | 1027.9 |
| 20260510070005 | 67 | 142 | 2.6 | 7.8 | 0.00 | 0.00 | 0.00 | 80 | 1027.7 |
| 20260510064556 | 67 | 188 | 1.7 | 7.0 | 0.00 | 0.00 | 0.00 | 79 | 1027.5 |
| 20260510063039 | 67 | 153 | 4.3 | 9.6 | 0.00 | 0.00 | 0.00 | 78 | 1027.4 |
| 20260510061514 | 68 | 153 | 2.6 | 8.7 | 0.00 | 0.00 | 0.00 | 78 | 1027.2 |
| 20260510060042 | 69 | 146 | 4.3 | 8.7 | 0.00 | 0.00 | 0.00 | 74 | 1027.0 |
| 20260510054523 | 69 | 187 | 6.1 | 10.4 | 0.00 | 0.00 | 0.00 | 71 | 1026.8 |
| 20260510053120 | 70 | 184 | 2.6 | 8.7 | 0.00 | 0.00 | 0.00 | 72 | 1026.7 |
| 20260510053002 | 70 | 124 | 3.5 | 8.7 | 0.00 | 0.00 | 0.00 | 72 | 1026.7 |
| 20260510051548 | 70 | 177 | 4.3 | 9.6 | 0.00 | 0.00 | 0.00 | 72 | 1026.6 |
| 20260510050006 | 71 | 157 | 4.3 | 9.6 | 0.00 | 0.00 | 0.00 | 71 | 1026.4 |
| 20260510044604 | 71 | 124 | 2.6 | 9.6 | 0.00 | 0.00 | 0.00 | 70 | 1026.4 |
| 20260510043042 | 71 | 119 | 5.2 | 8.7 | 0.00 | 0.00 | 0.00 | 70 | 1026.4 |
| 20260510041520 | 71 | 140 | 5.2 | 10.4 | 0.00 | 0.00 | 0.00 | 68 | 1026.4 |
| 20260510040044 | 72 | 110 | 4.3 | 8.7 | 0.00 | 0.00 | 0.00 | 65 | 1026.4 |
| 20260510034520 | 71 | 127 | 3.5 | 8.7 | 0.00 | 0.00 | 0.00 | 65 | 1026.6 |
| 20260510033112 | 70 | 126 | 3.5 | 7.8 | 0.00 | 0.00 | 0.00 | 67 | 1026.4 |
| 20260510031542 | 71 | 129 | 1.7 | 4.3 | 0.00 | 0.00 | 0.00 | 64 | 1026.6 |
| 20260510030015 | 72 | 121 | 0.9 | 4.3 | 0.00 | 0.00 | 0.00 | 61 | 1026.6 |
| 20260510024554 | 72 | 126 | 0.9 | 7.0 | 0.00 | 0.00 | 0.00 | 61 | 1026.8 |
| 20260510023032 | 73 | 142 | 0.9 | 4.3 | 0.00 | 0.00 | 0.00 | 60 | 1026.9 |
| 20260510021514 | 72 | 130 | 1.7 | 4.3 | 0.00 | 0.00 | 0.00 | 61 | 1027.1 |
| 20260510020032 | 73 | 150 | 0.9 | 3.5 | 0.00 | 0.00 | 0.00 | 61 | 1027.3 |
| 20260510014510 | 72 | 126 | 1.7 | 6.1 | 0.00 | 0.00 | 0.00 | 61 | 1027.4 |
| 20260510013044 | 71 | 335 | 0.9 | 5.2 | 0.00 | 0.00 | 0.00 | 63 | 1027.7 |
| 20260510011528 | 70 | 193 | 0.9 | 3.5 | 0.00 | 0.00 | 0.00 | 64 | 1027.9 |
| 20260510010044 | 69 | 240 | 1.7 | 5.2 | 0.00 | 0.00 | 0.00 | 65 | 1028.0 |
| 20260510004523 | 69 | 216 | 0.9 | 3.5 | 0.00 | 0.00 | 0.00 | 66 | 1028.2 |
| 20260510003004 | 68 | 200 | 0.9 | 2.6 | 0.00 | 0.00 | 0.00 | 67 | 1028.2 |
| 20260510001538 | 67 | 146 | 0.9 | 5.2 | 0.00 | 0.00 | 0.00 | 68 | 1028.1 |
| 20260510000100 | 65 | 271 | 0.9 | 3.5 | 0.00 | 0.00 | 0.00 | 70 | 1027.9 |
| 20260509234542 | 64 | 213 | 0.9 | 3.5 | 0.00 | 0.00 | 0.00 | 72 | 1027.8 |
| 20260509233014 | 63 | 261 | 0.9 | 3.5 | 0.00 | 0.00 | 0.00 | 75 | 1027.7 |
| 20260509231554 | 61 | 273 | 0.9 | 3.5 | 0.00 | 0.00 | 0.00 | 77 | 1027.6 |
| 20260509230017 | 60 | 261 | 0.9 | 2.6 | 0.00 | 0.00 | 0.00 | 79 | 1027.6 |
| 20260509224549 | 59 | 305 | 0.9 | 3.5 | 0.00 | 0.00 | 0.00 | 81 | 1027.5 |
| 20260509223022 | 58 | 315 | 0.9 | 2.6 | 0.00 | 0.00 | 0.00 | 83 | 1027.4 |
| 20260509221600 | 57 | 329 | 0.0 | 3.5 | 0.00 | 0.00 | 0.00 | 84 | 1027.4 |
| 20260509221502 | 57 | 342 | 0.9 | 3.5 | 0.00 | 0.00 | 0.00 | 84 | 1027.4 |
| 20260509220014 | 56 | 5 | 0.9 | 3.5 | 0.00 | 0.00 | 0.00 | 88 | 1027.3 |
| 20260509214551 | 54 | 22 | 0.0 | 2.6 | 0.00 | 0.00 | 0.00 | 92 | 1027.2 |
| 20260509213031 | 52 | 29 | 0.0 | 1.7 | 0.00 | 0.00 | 0.00 | 94 | 1027.0 |
| 20260509211506 | 50 | 255 | 0.0 | 1.7 | 0.00 | 0.00 | 0.00 | 94 | 1026.8 |
| 20260509210026 | 49 | 355 | 0.0 | 1.7 | 0.00 | 0.00 | 0.00 | 94 | 1026.5 |
| 20260509204656 | 49 | 355 | 0.0 | 1.7 | 0.00 | 0.00 | 0.00 | 93 | 1026.3 |
| 20260509123101 | 52 | 121 | 0.0 | 0.0 | 0.00 | 0.00 | 0.00 | 91 | 1024.7 |
| 20260509121535 | 52 | 121 | 0.0 | 0.0 | 0.00 | 0.00 | 0.00 | 90 | 1024.7 |
| 20260509120106 | 53 | 121 | 0.0 | 0.9 | 0.00 | 0.00 | 0.00 | 90 | 1024.8 |
| 20260509114541 | 53 | 121 | 0.0 | 0.9 | 0.00 | 0.00 | 0.00 | 90 | 1024.8 |
| 20260509113025 | 53 | 121 | 0.0 | 0.9 | 0.00 | 0.00 | 0.00 | 89 | 1024.8 |
| 20260509111511 | 53 | 121 | 0.0 | 0.0 | 0.00 | 0.00 | 0.00 | 89 | 1024.7 |
| 20260509110033 | 54 | 121 | 0.0 | 0.9 | 0.00 | 0.00 | 0.00 | 88 | 1024.6 |
| 20260509104529 | 54 | 121 | 0.0 | 0.0 | 0.00 | 0.00 | 0.00 | 87 | 1024.6 |
| 20260509103054 | 55 | 121 | 0.0 | 0.9 | 0.00 | 0.00 | 0.00 | 87 | 1024.6 |
| 20260509101535 | 55 | 121 | 0.0 | 0.9 | 0.00 | 0.00 | 0.00 | 86 | 1024.5 |
| 20260509100103 | 56 | 121 | 0.0 | 0.9 | 0.00 | 0.00 | 0.00 | 85 | 1024.4 |
| 20260509094540 | 56 | 121 | 0.0 | 0.9 | 0.00 | 0.00 | 0.00 | 84 | 1024.3 |
| 20260509093017 | 57 | 121 | 0.0 | 0.9 | 0.00 | 0.00 | 0.00 | 83 | 1024.2 |
| 20260509091502 | 57 | 360 | 0.0 | 0.9 | 0.00 | 0.00 | 0.00 | 82 | 1024.2 |
| 20260509090022 | 58 | 360 | 0.0 | 0.9 | 0.00 | 0.00 | 0.00 | 81 | 1024.0 |
| 20260509084603 | 59 | 65 | 0.9 | 1.7 | 0.00 | 0.00 | 0.00 | 79 | 1023.8 |
| 20260509084502 | 59 | 65 | 0.0 | 1.7 | 0.00 | 0.00 | 0.00 | 79 | 1023.8 |
| 20260509083044 | 60 | 132 | 0.0 | 0.9 | 0.00 | 0.00 | 0.00 | 77 | 1023.7 |
| 20260509081539 | 62 | 132 | 0.0 | 0.9 | 0.00 | 0.00 | 0.00 | 75 | 1023.6 |
| 20260509080056 | 63 | 151 | 0.0 | 1.7 | 0.00 | 0.00 | 0.00 | 74 | 1023.4 |
| 20260509074522 | 63 | 136 | 0.0 | 0.9 | 0.00 | 0.00 | 0.00 | 73 | 1023.2 |
| 20260509073006 | 64 | 120 | 0.0 | 2.6 | 0.00 | 0.00 | 0.00 | 71 | 1023.0 |